Погода в Новом Куваке

Россия / Самарская область     54°27′22″N   51°52′42″E
темп.,
°C
ветер,
м/с
пор.,
м/с
влажн.,
%
обл.,
%
осадки,
мм/ч
давл.,
гПа
погр.,
м
5 марта, пт
пт501:00−3з61287100 0.8 998511
04:00−5з3793100 0.8 999168
07:00−6зюз2295100 0.0 100038
10:00−5сз2395100 0.6 1001223
13:00−4ссз3493100 1.0 1001404
16:00−5сз3491100 1.4 1004412
19:00−11сз239357 0.0 100721
22:00−14зсз129029 0.0 101020
6 марта, сб
сб601:00−15зюз22950 0.0 101120
04:00−14юз339732 0.0 101230
07:00−15ююз349780 0.0 101251
10:00−10зюз589590 0.2 1013324
13:00−9з4694100 0.1 1014404
16:00−8з4690100 0.3 1013738
19:00−14зсз3496100 0.1 101360
22:00−16сз2298100 0.1 101420
7 марта, вс
вс701:00−18ссз11100100 0.0 101320
04:00−20сз1110070 0.0 101220
07:00−21з111004 0.0 101220
10:00−15зюз239326 0.0 1011175
13:00−12зюз459399 0.1 1011405
16:00−11зюз4693100 0.2 1010378
19:00−15ююз349779 0.0 100949
22:00−13ю4129672 0.1 1008297
8 марта, пн
пн801:00−12ю61494100 0.1 1004435
04:00−9ю71594100 0.7 1000753
07:00−7ююз81594100 1.3 997870
10:00−6з91387100 2.2 999991
13:00−6юз7118558 0.0 1002664
16:00−6ююз7128358 0.0 1004771
19:00−10ю488844 0.0 1001140
22:00−7юв489672 1.4 998379
9 марта, вт
вт901:00−7юз3996100 2.1 996460
04:00−9зюз101792100 3.5 998886
07:00−11з81592100 0.5 1003567
10:00−12з71194100 0.6 1007441
13:00−11зюз5793100 0.1 1009418
16:00−11зюз4692100 0.1 1011462
19:00−13юз3596100 0.1 1011130
22:00−14юз2496100 0.2 1012100